sat.trackr.live / text

‹ back to catalog

UMBRA-10

NORAD 60547 · 2024-149CH

PAYLOAD ACTIVE UNKNOWN

§ Identity

Operator
Country
US
Launch date
2024-08-16
Launch site
AFWTR
Launch vehicle
Mass (kg)
RCS (m²)

External: N2YO · Heavens-Above · Gunter

§ Orbital elements

Epoch: 2026-09-22T17:35:29.370048Z

Period
94.69 min
Inclination
97.6948°
Eccentricity
0.0000924
Mean motion
15.20706750 rev/d
Perigee alt
503.1 km
Apogee alt
504.3 km
Semi-major
6,881.8 km
B*
5.6435e-4
RAAN
354.8203°
Arg perigee
57.5133°
Mean anomaly
302.6191°
Rev number
11,554

§ Raw data

UMBRA-101 60547U 24149CH  26265.73297882  .00012346  00000+0  56435-3 0  99902 60547  97.6948 354.8203 0000924  57.5133 302.6191 15.20706750115542

JSON: /api/v1/satellites/60547 · /tle

For live sub-satellite position, see the globe view (requires WebGL).

§ Visibility from observer

Set your observer location to see the next 7 days of passes ≥ 10°. The values pass through the URL so the page stays shareable.

No JS? Fill the form by hand. The geolocation button needs JavaScript.